GW1815 Weather Reports


Display with metric or nautical units.
time (UTC)temp
F
wind
direction
speed
MPH
gust
MPH
rain 1hr
in
rain 24hr
in
rain mn
in
humidity
%
barometer
mb
20260505213030 58 217 5.0 11.0 0.00 0.00 0.00 33 1007.7
20260505211540 58 258 4.0 15.0 0.00 0.00 0.00 32 1007.9
20260505210031 58 217 4.0 12.0 0.00 0.00 0.00 33 1007.9
20260505204533 58 298 4.0 13.0 0.00 0.00 0.00 37 1007.9
20260505203046 58 334 4.0 16.0 0.00 0.00 0.00 30 1008.0
20260505201531 59 325 7.0 21.0 0.00 0.00 0.00 31 1008.0
20260505200031 59 328 3.0 14.0 0.00 0.00 0.00 32 1008.0
20260505194529 59 304 2.0 21.0 0.00 0.00 0.00 30 1008.0
20260505193029 59 315 5.0 13.0 0.00 0.00 0.00 32 1008.3
20260505191530 59 305 6.0 15.0 0.00 0.00 0.00 33 1008.3
20260505190034 59 311 4.0 16.0 0.00 0.00 0.00 35 1008.2
20260505184543 59 294 4.0 17.0 0.00 0.00 0.00 33 1008.0
20260505183039 60 227 4.0 20.0 0.00 0.00 0.00 36 1008.0
20260505181531 59 304 6.0 13.0 0.00 0.00 0.00 36 1007.8
20260505180032 58 222 3.0 13.0 0.00 0.00 0.00 38 1007.7
20260505174530 57 277 10.0 20.0 0.00 0.00 0.00 37 1007.7
20260505173031 57 227 3.0 13.0 0.00 0.00 0.00 38 1007.6
20260505171530 57 0 2.0 13.0 0.00 0.00 0.00 36 1007.9
20260505170036 56 258 4.0 12.0 0.00 0.00 0.00 37 1008.0
20260505164536 57 249 3.0 12.0 0.00 0.00 0.00 36 1007.5
20260505163033 56 255 3.0 15.0 0.00 0.00 0.00 42 1007.7
20260505161530 55 262 3.0 15.0 0.00 0.00 0.00 45 1007.6
20260505153034 52 288 3.0 12.0 0.00 0.00 0.00 44 1007.8
20260505151539 52 217 3.0 8.0 0.00 0.00 0.00 44 1007.9
20260505124534 48 307 2.0 8.0 0.00 0.00 0.00 49 1007.7
20260505123029 47 292 3.0 8.0 0.00 0.00 0.00 49 1007.9
20260505121536 47 0 1.0 6.0 0.00 0.00 0.00 51 1007.9
20260505120032 47 301 1.0 7.0 0.00 0.00 0.00 50 1007.8
20260505114532 47 315 3.0 11.0 0.00 0.00 0.00 48 1006.7
20260505113040 47 195 2.0 10.0 0.00 0.00 0.00 48 1006.9
20260505111541 48 293 6.0 11.0 0.00 0.00 0.00 50 1005.9
20260505101534 49 321 4.0 9.0 0.00 0.00 0.00 51 1005.6
20260505100034 49 332 5.0 14.0 0.00 0.00 0.00 48 1005.5
20260505094532 49 315 6.0 13.0 0.00 0.00 0.00 47 1005.4
20260505093034 49 5 8.0 16.0 0.00 0.00 0.00 48 1005.2
20260505091530 50 312 6.0 15.0 0.00 0.00 0.00 48 1005.1
20260505090033 50 306 6.0 13.0 0.00 0.00 0.00 48 1005.0
20260505084532 51 302 3.0 11.0 0.00 0.00 0.00 50 1004.5
20260505083039 52 346 6.0 13.0 0.00 0.00 0.00 49 1004.1
20260505081532 53 328 5.0 12.0 0.00 0.00 0.00 49 1003.8
20260505080031 54 329 5.0 12.0 0.00 0.00 0.00 47 1003.4
20260505074531 55 313 7.0 18.0 0.00 0.00 0.00 46 1002.9
20260505073030 55 306 6.0 17.0 0.00 0.00 0.00 46 1002.8
20260505071533 56 297 5.0 16.0 0.00 0.00 0.00 45 1002.4
20260505070034 57 295 6.0 14.0 0.00 0.00 0.00 43 1002.0
20260505064533 57 323 5.0 15.0 0.00 0.00 0.00 41 1001.9
20260505063032 58 306 5.0 15.0 0.00 0.00 0.00 40 1001.7
20260505061542 59 306 6.0 16.0 0.00 0.00 0.00 40 1001.5
20260505060031 59 244 7.0 18.0 0.00 0.00 0.00 39 1001.5
20260505054543 60 296 5.0 11.0 0.00 0.00 0.00 38 1001.3
20260505053030 60 302 5.0 11.0 0.00 0.00 0.00 36 1001.2
20260505051530 60 302 5.0 14.0 0.00 0.00 0.00 37 1000.9
20260505041532 62 294 5.0 12.0 0.00 0.00 0.00 39 1000.4
20260505040040 64 0 0.0 4.0 0.00 0.00 0.00 44 1000.1
20260505034539 65 312 1.0 6.0 0.00 0.00 0.00 43 999.6
20260505033029 66 291 4.0 16.0 0.00 0.00 0.00 42 999.3
20260505031533 66 315 5.0 13.0 0.00 0.00 0.00 43 999.3
20260505030030 66 308 4.0 11.0 0.00 0.00 0.00 47 999.4
20260505024532 65 271 1.0 8.0 0.00 0.00 0.00 62 998.9
20260505023030 66 283 3.0 11.0 0.00 0.00 0.00 63 998.7
20260505021533 66 204 2.0 12.0 0.00 0.00 0.00 61 998.4
20260505020039 67 236 3.0 9.0 0.00 0.00 0.00 60 997.7
20260505014534 67 220 9.0 20.0 0.00 0.00 0.00 58 997.4
20260505013033 68 179 5.0 17.0 0.00 0.00 0.00 54 997.2
20260505011530 69 182 4.0 14.0 0.00 0.00 0.00 52 997.0
20260505010031 69 136 4.0 15.0 0.00 0.00 0.00 49 996.9
20260505004530 70 197 3.0 11.0 0.00 0.00 0.00 45 996.3
20260505003029 71 200 3.0 7.0 0.00 0.00 0.00 43 996.2
20260505001529 72 211 1.0 11.0 0.00 0.00 0.00 42 995.8
20260505000043 73 200 2.0 10.0 0.00 0.00 0.00 42 995.8
20260504234535 74 159 5.0 17.0 0.00 0.00 0.00 41 995.7
20260504233030 75 203 4.0 22.0 0.00 0.00 0.00 38 996.1
20260504231531 77 273 8.0 21.0 0.00 0.00 0.00 33 996.2
20260504230029 79 209 10.0 20.0 0.00 0.00 0.00 32 996.3
20260504224530 79 225 5.0 21.0 0.00 0.00 0.00 32 996.3
20260504223032 79 213 5.0 19.0 0.00 0.00 0.00 33 996.4
20260504221530 80 207 3.0 17.0 0.00 0.00 0.00 31 996.4
20260504220043 80 310 5.0 13.0 0.00 0.00 0.00 34 996.5
20260504214534 79 255 6.0 14.0 0.00 0.00 0.00 29 996.6